KR4ELZ Weather Reports


Display with metric or nautical units.
time (UTC)temp
F
wind
direction
speed
MPH
gust
MPH
rain 1hr
in
rain 24hr
in
rain mn
in
humidity
%
barometer
mb
20260507120206 50 196 0.0 0.0 0.00 0.00 0.00 98 1016.0
20260507115702 50 198 0.0 0.0 0.00 0.00 0.00 98 1015.9
20260507115158 50 196 0.0 0.0 0.00 0.00 0.00 99 1015.8
20260507114654 49 193 1.0 1.0 0.00 0.00 0.00 99 1015.5
20260507114151 49 196 0.0 0.0 0.00 0.00 0.00 99 1015.7
20260507113649 49 182 0.0 0.0 0.00 0.00 0.00 99 1015.7
20260507113145 49 181 0.0 1.0 0.00 0.00 0.00 99 1015.7
20260507112643 49 193 0.0 0.0 0.00 0.00 0.00 99 1015.6
20260507112140 49 194 0.0 0.0 0.00 0.00 0.00 99 1015.5
20260507111637 49 193 0.0 0.0 0.00 0.00 0.00 99 1015.4
20260507111133 49 185 0.0 0.0 0.00 0.00 0.00 99 1015.5
20260507110629 49 194 0.0 1.0 0.00 0.00 0.00 99 1015.3
20260507110126 49 67 1.0 2.0 0.00 0.00 0.00 99 1015.3
20260507105623 50 192 0.0 0.0 0.00 0.00 0.00 99 1015.2
20260507105119 50 188 0.0 0.0 0.00 0.00 0.00 99 1015.1
20260507104617 50 188 0.0 0.0 0.00 0.00 0.00 99 1015.1
20260507104113 50 188 0.0 0.0 0.00 0.00 0.00 99 1015.0
20260507103609 50 187 0.0 0.0 0.00 0.00 0.00 99 1014.8
20260507103106 50 181 0.0 0.0 0.00 0.00 0.00 98 1014.9
20260507102603 50 180 0.0 0.0 0.00 0.00 0.00 98 1014.7
20260507102059 50 181 0.0 0.0 0.00 0.00 0.00 98 1014.8
20260507101554 50 181 0.0 0.0 0.00 0.00 0.00 98 1014.8
20260507101051 50 181 0.0 0.0 0.00 0.00 0.00 98 1014.6
20260507100548 50 181 0.0 0.0 0.00 0.00 0.00 98 1014.7
20260507100046 50 180 0.0 0.0 0.00 0.00 0.00 98 1014.7
20260507095544 51 177 0.0 0.0 0.00 0.00 0.00 98 1014.5
20260507095040 51 192 0.0 0.0 0.00 0.00 0.00 98 1014.5
20260507094536 51 192 0.0 0.0 0.00 0.00 0.00 98 1014.4
20260507094034 51 192 0.0 0.0 0.00 0.00 0.00 98 1014.2
20260507093531 51 192 0.0 0.0 0.00 0.00 0.00 98 1014.1
20260507093030 51 192 0.0 0.0 0.00 0.00 0.00 98 1014.2
20260507092526 51 205 0.0 0.0 0.00 0.00 0.00 98 1014.3
20260507092023 51 205 0.0 0.0 0.00 0.00 0.00 97 1014.2
20260507091519 51 204 0.0 1.0 0.00 0.00 0.00 97 1014.2
20260507091015 51 208 0.0 0.0 0.00 0.00 0.00 97 1014.4
20260507090511 51 208 0.0 0.0 0.00 0.00 0.00 97 1014.8
20260507090008 51 208 0.0 0.0 0.00 0.00 0.00 96 1014.4
20260507085505 51 189 0.0 0.0 0.00 0.00 0.00 96 1014.5
20260507085002 52 191 0.0 0.0 0.00 0.00 0.00 96 1014.5
20260507084459 52 169 0.0 0.0 0.00 0.00 0.00 95 1014.5
20260507083956 52 198 0.0 0.0 0.00 0.00 0.00 96 1014.3
20260507083452 52 198 0.0 0.0 0.00 0.00 0.00 96 1014.6
20260507082948 52 191 0.0 1.0 0.00 0.00 0.00 96 1014.5
20260507082445 52 191 0.0 0.0 0.00 0.00 0.00 96 1014.3
20260507081941 52 175 0.0 1.0 0.00 0.00 0.00 96 1014.2
20260507081438 52 161 0.0 0.0 0.00 0.00 0.00 97 1014.1
20260507080935 52 188 0.0 0.0 0.00 0.00 0.00 98 1014.2
20260507080431 52 196 0.0 0.0 0.00 0.00 0.00 98 1014.4
20260507075926 52 196 0.0 0.0 0.00 0.00 0.00 98 1014.2
20260507075423 52 196 0.0 0.0 0.00 0.00 0.00 98 1014.5
20260507074919 52 196 0.0 0.0 0.00 0.00 0.00 98 1014.6
20260507074416 52 196 0.0 0.0 0.00 0.00 0.00 98 1014.7
20260507073914 52 196 0.0 0.0 0.00 0.00 0.00 98 1014.7
20260507073410 52 194 0.0 0.0 0.00 0.00 0.00 97 1014.9
20260507072907 52 193 0.0 0.0 0.00 0.00 0.00 97 1014.6
20260507072405 52 187 0.0 0.0 0.00 0.00 0.00 97 1014.6
20260507071902 52 190 0.0 0.0 0.00 0.00 0.00 97 1014.7
20260507071359 52 191 0.0 0.0 0.00 0.00 0.00 97 1015.0
20260507070855 52 190 0.0 1.0 0.00 0.00 0.00 97 1014.8
20260507070353 52 190 1.0 1.0 0.00 0.00 0.00 97 1014.8
20260507065849 52 181 0.0 0.0 0.00 0.00 0.00 98 1014.8
20260507065346 52 179 0.0 0.0 0.00 0.00 0.00 97 1014.9
20260507064843 52 123 1.0 1.0 0.00 0.00 0.00 97 1014.3
20260507064342 52 189 0.0 0.0 0.00 0.00 0.00 98 1014.6
20260507063839 52 217 0.0 0.0 0.00 0.00 0.00 98 1014.9
20260507063336 52 217 0.0 0.0 0.00 0.00 0.00 98 1014.9
20260507062832 52 217 0.0 0.0 0.00 0.00 0.00 97 1015.1
20260507062329 52 203 0.0 0.0 0.00 0.00 0.00 97 1014.7
20260507061828 52 187 0.0 0.0 0.00 0.00 0.00 97 1014.7
20260507061325 52 153 1.0 1.0 0.00 0.00 0.00 98 1014.5
20260507060824 52 179 0.0 0.0 0.00 0.00 0.00 98 1014.8
20260507060320 52 209 0.0 1.0 0.00 0.00 0.00 98 1014.5
20260507055817 53 204 0.0 1.0 0.00 0.00 0.00 98 1014.7
20260507055312 53 180 0.0 0.0 0.00 0.00 0.00 98 1014.4
20260507054808 53 191 0.0 1.0 0.00 0.00 0.00 98 1014.7
20260507054305 53 184 0.0 0.0 0.00 0.00 0.00 98 1014.7
20260507053802 53 210 0.0 1.0 0.00 0.00 0.00 98 1014.4
20260507053300 52 175 0.0 0.0 0.00 0.00 0.00 98 1014.5
20260507052759 52 183 0.0 1.0 0.00 0.00 0.00 98 1014.5
20260507052254 52 153 0.0 1.0 0.00 0.00 0.00 98 1014.5
20260507051753 52 177 1.0 1.0 0.00 0.00 0.00 98 1014.2
20260507051249 53 225 0.0 1.0 0.00 0.00 0.00 98 1014.6
20260507050746 53 274 1.0 1.0 0.00 0.00 0.00 98 1014.6
20260507050243 53 212 0.0 1.0 0.00 0.00 0.00 98 1014.6
20260507045740 52 209 1.0 1.0 0.00 2.21 2.21 98 1014.2
20260507045236 53 146 0.0 1.0 0.00 2.21 2.21 98 1014.2
20260507044733 52 157 0.0 1.0 0.00 2.21 2.21 98 1014.5
20260507044230 52 176 0.0 1.0 0.00 2.21 2.21 98 1014.5
20260507043726 53 142 1.0 1.0 0.00 2.21 2.21 98 1014.7
20260507043223 53 157 0.0 1.0 0.00 2.21 2.21 98 1014.4
20260507042719 53 208 1.0 1.0 0.00 2.21 2.21 98 1014.8
20260507042214 53 177 0.0 0.0 0.00 2.21 2.21 98 1014.9
20260507041712 53 177 1.0 1.0 0.00 2.21 2.21 98 1015.0
20260507041208 53 90 1.0 1.0 0.00 2.21 2.21 98 1015.0
20260507040705 53 201 0.0 0.0 0.00 2.21 2.21 98 1015.0
20260507040201 53 167 0.0 0.0 0.00 2.21 2.21 98 1014.6
20260507035657 53 209 0.0 0.0 0.00 2.21 2.21 98 1015.5
20260507035153 53 198 1.0 1.0 0.00 2.21 2.21 98 1015.4
20260507034650 53 285 1.0 1.0 0.00 2.21 2.21 98 1014.9
20260507034148 53 179 0.0 0.0 0.00 2.21 2.21 98 1014.9
20260507033646 53 198 0.0 0.0 0.00 2.21 2.21 98 1015.1
20260507033143 53 139 1.0 1.0 0.00 2.21 2.21 98 1015.2
20260507032641 53 221 1.0 1.0 0.00 2.21 2.21 98 1015.6
20260507032136 53 199 0.0 0.0 0.00 2.21 2.21 98 1015.5
20260507031633 53 221 0.0 0.0 0.00 2.21 2.21 98 1015.0
20260507031130 53 204 1.0 1.0 0.00 2.21 2.21 98 1014.9
20260507030627 53 171 0.0 1.0 0.00 2.21 2.21 98 1014.8
20260507030125 53 208 0.0 0.0 0.00 2.21 2.21 98 1015.2
20260507025621 53 206 0.0 0.0 0.00 2.21 2.21 98 1015.0
20260507025118 53 220 0.0 1.0 0.00 2.21 2.21 98 1014.8
20260507024616 53 38 1.0 2.0 0.00 2.21 2.21 98 1013.8
20260507024113 53 152 1.0 2.0 0.00 2.21 2.21 98 1014.4
20260507023608 53 217 0.0 0.0 0.00 2.21 2.21 98 1014.5
20260507023106 53 200 0.0 1.0 0.00 2.21 2.21 98 1014.8
20260507022603 53 220 0.0 1.0 0.00 2.21 2.21 98 1014.3
20260507022058 53 177 0.0 0.0 0.00 2.21 2.21 98 1014.2
20260507021555 53 195 0.0 1.0 0.00 2.21 2.21 98 1014.1
20260507021051 53 183 0.0 1.0 0.00 2.21 2.21 99 1014.1
20260507020549 53 180 0.0 1.0 0.00 2.21 2.21 99 1014.0
20260507020045 53 133 1.0 2.0 0.00 2.21 2.21 99 1014.0
20260507015544 54 182 1.0 2.0 0.00 2.21 2.21 99 1014.3
20260507015041 54 211 0.0 0.0 0.00 2.21 2.21 99 1014.1
20260507014537 53 351 2.0 2.0 0.00 2.21 2.21 99 1014.0
20260507014033 54 212 0.0 1.0 0.00 2.21 2.21 99 1013.9
20260507013530 54 170 0.0 0.0 0.00 2.21 2.21 99 1013.6
20260507013027 53 181 0.0 0.0 0.00 2.21 2.21 99 1013.1
20260507012524 54 188 0.0 0.0 0.00 2.21 2.21 99 1013.5
20260507012020 53 204 0.0 0.0 0.00 2.21 2.21 99 1013.5
20260507011518 54 123 1.0 2.0 0.00 2.21 2.21 99 1013.7
20260507011014 54 26 1.0 2.0 0.00 2.21 2.21 99 1013.6
20260507010508 53 160 0.0 0.0 0.00 2.21 2.21 99 1013.7
20260507010005 54 174 0.0 1.0 0.00 2.21 2.21 99 1013.7
20260507005503 54 190 0.0 1.0 0.00 2.21 2.21 99 1013.8
20260507004959 54 226 0.0 1.0 0.00 2.21 2.21 99 1014.0
20260507004456 54 186 0.0 1.0 0.00 2.21 2.21 99 1014.2
20260507003954 54 179 0.0 1.0 0.00 2.21 2.21 99 1014.3
20260507003449 54 224 0.0 0.0 0.00 2.21 2.21 99 1014.6
20260507002944 54 226 0.0 0.0 0.00 2.21 2.21 99 1014.3
20260507002441 54 205 0.0 0.0 0.00 2.21 2.21 99 1014.2
20260507001937 54 215 0.0 0.0 0.00 2.21 2.21 99 1014.2
20260507001434 54 183 0.0 0.0 0.00 2.21 2.21 99 1014.2
20260507000932 54 183 0.0 0.0 0.00 2.21 2.21 99 1014.1
20260507000427 54 200 0.0 1.0 0.00 2.21 2.21 99 1014.0
20260506235923 54 208 0.0 0.0 0.00 2.21 2.21 99 1014.1
20260506235421 54 194 0.0 0.0 0.00 2.21 2.21 99 1013.9
20260506234915 54 182 0.0 0.0 0.00 2.21 2.21 99 1013.9
20260506234414 54 177 0.0 1.0 0.00 2.21 2.21 99 1013.7
20260506233911 54 179 0.0 0.0 0.00 2.21 2.21 99 1013.7
20260506233407 54 185 0.0 0.0 0.00 2.21 2.21 99 1013.6
20260506232904 54 192 0.0 0.0 0.00 2.21 2.21 99 1013.6
20260506232400 54 190 0.0 1.0 0.00 2.21 2.21 99 1013.4
20260506231856 54 210 1.0 1.0 0.00 2.21 2.21 99 1013.6
20260506231354 54 220 0.0 1.0 0.00 2.21 2.21 99 1013.5
20260506230851 54 205 0.0 0.0 0.00 2.21 2.21 99 1012.8
20260506230348 54 201 0.0 0.0 0.00 2.21 2.21 99 1012.8
20260506225844 54 140 1.0 1.0 0.00 2.21 2.21 99 1012.3
20260506225342 54 209 1.0 1.0 0.00 2.21 2.21 99 1013.4
20260506224838 54 140 1.0 1.0 0.00 2.21 2.21 99 1012.9
20260506224336 54 99 1.0 1.0 0.00 2.21 2.21 98 1013.0
20260506223832 54 217 0.0 0.0 0.00 2.21 2.21 99 1013.1
20260506223327 54 153 1.0 1.0 0.00 2.21 2.21 99 1012.7
20260506222825 54 206 0.0 0.0 0.00 2.21 2.21 99 1013.1
20260506222319 54 162 1.0 1.0 0.00 2.21 2.21 99 1012.9
20260506221813 54 167 1.0 1.0 0.00 2.21 2.21 99 1013.1
20260506221310 54 167 0.0 1.0 0.00 2.21 2.21 99 1013.3
20260506220808 54 198 0.0 0.0 0.00 2.21 2.21 99 1013.5
20260506220307 54 120 1.0 2.0 0.00 2.21 2.21 99 1013.5
20260506215804 54 179 0.0 0.0 0.00 2.21 2.21 99 1013.4
20260506215300 54 179 0.0 0.0 0.00 2.21 2.21 99 1013.6
20260506214756 54 207 0.0 0.0 0.00 2.21 2.21 99 1014.1
20260506214253 54 213 0.0 0.0 0.00 2.21 2.21 99 1013.6
20260506213752 54 176 0.0 1.0 0.00 2.21 2.21 99 1012.8
20260506213248 54 13 1.0 1.0 0.00 2.21 2.21 99 1013.0
20260506212746 54 180 1.0 1.0 0.00 2.21 2.21 99 1013.8
20260506212241 54 205 0.0 0.0 0.05 2.21 2.21 99 1013.6
20260506211737 54 138 1.0 1.0 0.12 2.21 2.21 99 1013.0
20260506211233 53 177 0.0 0.0 0.19 2.20 2.20 99 1013.7
20260506210731 53 182 0.0 0.0 0.17 2.19 2.19 99 1014.3
20260506210227 53 221 0.0 0.0 0.12 2.17 2.17 99 1014.7
20260506205725 54 120 1.0 1.0 0.07 2.16 2.16 99 1014.4
20260506205220 53 183 0.0 0.0 0.00 2.15 2.15 99 1014.2
20260506204717 53 208 1.0 1.0 0.00 2.15 2.15 99 1014.7
20260506204214 53 200 0.0 1.0 0.00 2.15 2.15 99 1014.6
20260506203712 53 220 0.0 1.0 0.00 2.15 2.15 99 1014.4
20260506203209 54 230 1.0 1.0 0.00 2.15 2.15 99 1014.2
20260506202707 54 208 1.0 1.0 0.00 2.15 2.15 99 1014.3
20260506202203 54 240 1.0 1.0 0.00 2.15 2.15 99 1014.3
20260506201700 55 152 1.0 2.0 0.00 2.15 2.15 99 1013.7
20260506201156 55 196 0.0 1.0 0.00 2.15 2.15 99 1013.3
20260506200653 55 179 0.0 1.0 0.00 2.15 2.15 99 1013.1
20260506200150 55 211 1.0 1.0 0.00 2.15 2.15 99 1013.3
20260506195647 55 196 0.0 0.0 0.00 2.15 2.15 99 1013.1
20260506195143 55 211 0.0 1.0 0.00 2.15 2.15 99 1013.6
20260506194641 55 230 2.0 3.0 0.00 2.15 2.15 99 1013.4
20260506194136 55 249 1.0 1.0 0.00 2.15 2.15 99 1013.7
20260506193635 55 222 0.0 1.0 0.00 2.15 2.15 99 1013.9
20260506193131 55 214 2.0 2.0 0.00 2.15 2.15 99 1013.8
20260506192628 55 126 1.0 1.0 0.05 2.15 2.15 99 1013.8
20260506192124 54 278 1.0 1.0 0.12 2.15 2.15 99 1013.8
20260506191621 54 229 0.0 1.0 0.12 2.14 2.14 99 1013.6
20260506191117 54 161 0.0 1.0 0.05 2.13 2.13 99 1014.0
20260506190615 55 227 2.0 2.0 0.00 2.12 2.12 99 1014.1
20260506190111 55 310 2.0 2.0 0.00 2.12 2.12 99 1014.1
20260506185608 55 222 0.0 1.0 0.00 2.12 2.12 99 1013.8
20260506185105 55 232 3.0 4.0 0.00 2.12 2.12 98 1013.4
20260506184602 55 225 0.0 1.0 0.00 2.12 2.12 99 1013.5
20260506184059 55 161 1.0 1.0 0.00 2.12 2.12 99 1013.5
20260506183555 55 218 1.0 1.0 0.00 2.12 2.12 99 1013.7
20260506183052 56 220 0.0 1.0 0.00 2.12 2.12 99 1013.4
20260506182549 55 223 0.0 1.0 0.00 2.12 2.12 99 1013.5
20260506182046 56 195 0.0 1.0 0.00 2.12 2.12 99 1013.6
20260506181544 56 113 1.0 2.0 0.00 2.12 2.12 99 1013.6
20260506181041 55 156 1.0 1.0 0.00 2.12 2.12 99 1013.5
20260506180537 55 25 2.0 2.0 0.00 2.12 2.12 99 1013.6
20260506180034 55 217 0.0 0.0 0.00 2.12 2.12 99 1013.6
20260506175531 55 198 0.0 0.0 0.00 2.12 2.12 99 1013.6
20260506175027 55 204 2.0 2.0 0.00 2.12 2.12 99 1014.0
20260506174526 55 220 0.0 0.0 0.00 2.12 2.12 99 1014.2
20260506174021 55 264 1.0 1.0 0.00 2.12 2.12 99 1013.8
20260506173519 55 236 1.0 2.0 0.00 2.12 2.12 99 1013.9
20260506173016 54 186 0.0 1.0 0.00 2.12 2.12 99 1013.8
20260506172514 54 186 1.0 1.0 0.00 2.12 2.12 99 1013.4
20260506172009 55 159 1.0 2.0 0.00 2.12 2.12 99 1013.9
20260506171507 55 189 0.0 0.0 0.00 2.12 2.12 99 1013.8
20260506171005 55 154 0.0 1.0 0.00 2.12 2.12 99 1013.9
20260506170502 55 216 0.0 0.0 0.00 2.12 2.12 99 1014.0
20260506170000 55 194 1.0 1.0 0.00 2.12 2.12 99 1014.1
20260506165458 55 218 1.0 1.0 0.00 2.12 2.12 99 1013.7
20260506164954 55 239 1.0 1.0 0.00 2.12 2.12 99 1013.7
20260506164450 55 230 2.0 2.0 0.00 2.12 2.12 99 1013.8
20260506163943 55 199 0.0 0.0 0.00 2.12 2.12 99 1013.7
20260506163438 55 249 1.0 1.0 0.00 2.12 2.12 99 1013.6
20260506162933 55 45 1.0 2.0 0.00 2.12 2.12 99 1013.0
20260506162431 55 170 0.0 1.0 0.00 2.12 2.12 99 1012.5
20260506161927 54 213 0.0 0.0 0.07 2.12 2.12 99 1013.7
20260506161425 55 189 0.0 1.0 0.07 2.12 2.12 99 1012.9
20260506160923 55 208 1.0 1.0 0.07 2.11 2.11 99 1013.1
20260506160420 55 169 1.0 2.0 0.07 2.11 2.11 99 1013.5
20260506155917 55 190 0.0 0.0 0.00 2.10 2.10 99 1013.3
20260506155415 55 227 0.0 1.0 0.00 2.10 2.10 99 1012.7
20260506153536 55 218 0.0 1.0 0.05 2.10 2.10 99 1012.1
20260506153034 55 24 1.0 2.0 0.05 2.10 2.10 99 1011.9
20260506152531 55 214 0.0 1.0 0.00 2.09 2.09 99 1012.3
20260506152029 55 207 1.0 1.0 0.00 2.09 2.09 99 1012.3
20260506151526 55 221 0.0 1.0 0.00 2.09 2.09 99 1013.0
20260506151023 55 226 1.0 1.0 0.00 2.09 2.09 99 1012.7
20260506150519 55 216 1.0 1.0 0.07 2.09 2.09 99 1012.7
20260506150017 55 191 1.0 1.0 0.12 2.09 2.09 99 1012.7
20260506145513 55 184 0.0 0.0 0.59 2.08 2.08 99 1012.5
20260506145011 55 175 0.0 0.0 0.54 2.07 2.07 99 1012.5
20260506144507 55 117 2.0 2.0 0.00 1.98 1.98 99 1013.4
20260506144005 55 199 1.0 1.0 0.00 1.98 1.98 99 1013.5
20260506143502 56 252 1.0 1.0 0.00 1.98 1.98 99 1013.3
20260506143000 55 213 0.0 0.0 0.00 1.98 1.98 99 1013.6
20260506142458 56 217 0.0 0.0 0.00 1.98 1.98 99 1013.4
20260506141955 55 228 2.0 2.0 0.00 1.98 1.98 99 1012.4
20260506141453 55 232 1.0 1.0 0.00 1.98 1.98 99 1012.4
20260506140952 55 122 0.0 1.0 0.00 1.98 1.98 99 1012.8
20260506140448 55 217 1.0 1.0 0.00 1.98 1.98 99 1012.2
20260506135945 55 36 1.0 1.0 0.00 1.98 1.98 99 1012.6
20260506135442 55 225 0.0 0.0 0.00 1.98 1.98 99 1012.7
20260506134938 55 219 2.0 2.0 0.00 1.98 1.98 99 1012.5
20260506134434 55 208 0.0 1.0 0.00 1.98 1.98 99 1012.4
20260506133931 56 220 0.0 0.0 0.00 1.98 1.98 99 1012.3
20260506133429 55 216 0.0 1.0 0.00 1.98 1.98 99 1011.6
20260506132925 55 169 0.0 1.0 0.00 1.98 1.98 99 1011.7
20260506132422 55 222 0.0 0.0 0.00 1.98 1.98 99 1011.7
20260506131920 55 220 1.0 1.0 0.00 1.98 1.98 99 1011.8
20260506131416 55 216 1.0 1.0 0.00 1.98 1.98 99 1011.8
20260506130913 55 219 1.0 1.0 0.00 1.98 1.98 99 1011.6
20260506130409 56 221 0.0 0.0 0.07 1.98 1.98 99 1011.6
20260506125908 56 212 1.0 1.0 0.07 1.98 1.98 99 1011.6
20260506125406 56 219 1.0 1.0 0.00 1.97 1.97 99 1011.7
20260506124904 56 233 3.0 4.0 0.00 1.97 1.97 99 1011.7
20260506124400 56 220 0.0 1.0 0.00 1.97 1.97 99 1010.9
20260506123858 56 206 0.0 0.0 0.00 1.97 1.97 99 1010.3
20260506123356 56 189 0.0 0.0 0.00 1.97 1.97 99 1010.3
20260506122853 56 215 0.0 0.0 0.00 1.97 1.97 99 1010.3
20260506122350 55 216 0.0 0.0 0.00 1.97 1.97 99 1010.4
20260506121849 55 260 1.0 1.0 0.00 1.97 1.97 99 1009.6
20260506121345 55 176 0.0 0.0 0.17 1.97 1.97 99 1008.7
20260506120842 55 211 0.0 0.0 0.28 1.97 1.97 99 1009.3